Погода в Зубово

Россия / Московская область     56°22′57″N   36°55′41″E
темп.,
°C
ветер,
м/с
пор.,
м/с
влажн.,
%
обл.,
%
осадки,
мм/ч
давл.,
гПа
погр.,
м
9 марта, вт
вт900:00−14ссз279679 0.0 1011189
03:00−16сз259769 0.0 1014132
06:00−18сз259868 0.0 1015101
09:00−17ссз359381 0.1 1017311
12:00−13ссз3483100 0.0 1017626
15:00−12ссз4677100 0.1 1018846
18:00−15ссз3788100 0.0 1020284
21:00−19с269696 0.0 1023168
10 марта, ср
ср1000:00−21с23984 0.0 102478
03:00−23ссз22986 0.0 102655
06:00−24с249831 0.0 102787
09:00−23ссв249222 0.0 1028245
12:00−17ссв24744 0.0 1029486
15:00−15ссв24712 0.0 1029674
18:00−17с12860 0.0 102920
21:00−20ссв11910 0.0 103120
11 марта, чт
чт1100:00−21зсз11910 0.0 103120
03:00−21з22890 0.0 103220
06:00−21з22900 0.0 103222
09:00−18з23830 0.0 1033141
12:00−12зюз22710 0.0 1033446
15:00−10зюз23680 0.0 1032704
18:00−13юз12830 0.0 103021
21:00−16ююз23870 0.0 103060
12 марта, пт
пт1200:00−17ююз38870 0.0 1030181
03:00−18ююз39860 0.0 1029225
06:00−19ю310810 0.0 1029236
09:00−16ю49760 0.0 1027300
12:00−10ю510750 0.0 1025491
15:00−6ю611750 0.0 1023727
18:00−8ююв6148033 0.0 1021665
21:00−9ю6167867 0.0 1021689
13 марта, сб
сб1300:00−9ю61576100 0.0 1019737
03:00−9ю61482100 0.0 1018742
06:00−8ю51386100 0.0 1016765
09:00−7ю61290100 0.4 1015788
12:00−4ю61083100 0.1 1014805
15:00−2ю4893100 0.6 1013596
18:000ююз3797100 0.4 1012313
21:000юз41192100 0.8 1013510